Location: Schommer Observatory
(40.5200°N, 74.4500°W)
Time: 04:58:05
(UTC-04:00)

Envisat - Pass Details

Date: 09 October 2017
Orbit: 764 x 766 km, 98.2° (Epoch: 18 October)

Event Time Altitude Azimuth Distance (km) Brightness Sun altitude
Exits shadow 21:44:40 25° 284° (WNW) 1,519 5.0 -37.5°
Drops below altitude 10° 21:47:55 10° 322° (NW) 2,308 6.1 -38.1°
Sets 21:50:35 0° 335° (NNW) 3,239 6.9 -38.5°
